Wind_Speed
21 21 20 19 21 21 17 17 15 14 12 11 14 17 20 21 22 23 24 25 25 24 23 23 21 21 21 21 20 20 20 20 21 20 19 18 18 17 17 17 17 17 16 16 17 18 18 17 17 17 17 16 17 17 18 19 20 20 20 20 19 18 18 18 18 17 17 17 16 16 16 17 17 17 18 18 19 19 19 18 19 19 18 18 19
23 22 20 20 22 21 18 17 15 14 11 11 13 17 20 20 21 22 23 23 23 22 21 21 21 20 20 20 20 20 20 20 20 19 19 18 17 17 16 16 15 15 16 16 17 18 18 17 16 16 17 16 17 18 19 20 21 21 20 19 19 18 18 18 18 17 17 17 15 15 16 16 16 16 17 17 18 17 18 17 18 18 17 18 18
24 23 21 21 22 21 19 17 16 14 12 11 13 17 19 20 19 20 21 22 21 19 18 19 20 20 19 20 19 20 19 19 19 18 18 17 17 16 16 15 15 15 15 16 18 18 17 16 15 16 16 15 16 18 19 20 20 20 19 19 18 17 16 16 15 15 14 15 14 15 16 16 15 15 15 16 16 16 16 16 16 17 16 17 17
24 23 21 21 22 21 19 17 15 14 12 11 14 17 19 19 18 18 19 19 18 17 17 17 19 20 19 19 19 19 18 18 18 18 17 17 16 16 15 14 14 14 14 15 18 17 15 15 15 15 16 15 16 18 18 18 18 18 17 17 16 15 14 14 13 12 12 13 14 14 16 16 14 14 14 14 15 14 15 15 15 15 14 15 15
24 22 21 21 22 21 19 17 15 14 12 11 14 17 19 18 16 16 17 17 16 16 16 17 18 19 19 19 19 18 18 18 17 17 17 16 15 14 13 12 12 12 12 12 16 17 14 14 14 15 14 14 15 16 17 16 15 14 13 13 12 12 11 12 11 10 10 11 12 13 14 14 13 12 12 12 13 13 13 12 13 12 12 12 12
24 22 22 22 22 21 18 17 14 14 12 11 13 17 20 19 16 15 15 16 16 15 16 17 18 19 19 19 18 18 17 17 17 17 15 14 13 12 11 11 11 10 11 10 14 17 14 13 13 14 14 14 15 15 15 13 12 10 9 7 7 7 7 9 10 9 8 9 12 12 12 13 13 12 11 11 11 10 11 10 11 10 10 11 11
25 23 23 23 23 21 18 17 14 13 12 11 13 17 19 18 16 15 15 15 15 15 16 16 17 18 18 18 17 17 17 17 16 16 14 12 12 11 10 10 9 9 9 9 10 15 13 12 12 13 13 13 15 14 12 11 9 7 6 5 6 6 5 7 9 8 6 8 12 12 13 13 14 13 10 10 10 9 9 9 9 9 9 10 10
24 23 23 24 23 21 18 16 14 13 12 12 13 16 17 16 15 14 15 15 15 14 15 16 16 17 17 17 16 16 16 15 14 14 13 12 11 11 10 9 9 8 9 9 9 12 13 12 12 13 11 11 13 12 10 9 7 5 5 7 8 6 6 6 8 8 7 9 11 12 13 13 13 12 10 9 9 9 10 10 10 9 9 9 8
23 22 22 24 22 21 18 16 14 13 12 12 13 16 16 15 15 14 14 14 14 14 15 15 15 16 16 16 15 15 15 14 13 12 12 11 11 10 9 9 8 8 9 9 9 10 13 14 12 11 10 10 12 10 9 7 5 5 6 7 8 7 7 7 8 8 8 9 10 10 10 11 10 9 8 8 9 10 10 10 10 10 10 9 9
22 21 22 23 22 21 18 16 14 13 12 11 12 15 16 15 14 14 14 13 13 14 15 14 14 15 15 15 14 14 14 13 12 11 11 11 10 10 10 10 10 10 10 8 8 9 12 14 11 10 10 11 11 9 7 5 4 4 5 6 7 8 8 8 8 8 8 8 9 9 9 9 9 8 7 7 7 9 10 11 11 10 10 10 9
21 20 21 22 21 20 18 16 15 14 12 11 11 14 16 15 14 14 14 13 13 13 14 14 14 14 14 14 14 13 12 12 11 11 10 10 10 10 10 11 11 10 9 7 7 8 11 13 11 10 11 11 10 8 6 4 3 3 4 5 7 9 9 8 7 7 7 8 9 9 9 9 10 8 6 6 7 7 8 9 9 9 10 10 9
20 19 21 21 20 19 18 16 15 14 12 11 11 13 16 15 14 14 14 13 12 13 14 14 14 14 13 13 13 12 11 11 11 10 9 10 10 10 10 10 9 8 6 6 6 8 10 13 12 11 11 10 8 7 7 4 3 3 4 7 8 9 8 6 5 6 7 9 9 9 9 9 9 7 6 6 7 8 7 7 7 7 8 9 9
20 18 20 20 19 19 18 16 16 14 12 11 11 12 14 15 14 13 14 14 13 12 13 14 14 13 12 12 11 11 10 11 10 9 9 10 10 10 10 10 9 8 7 7 8 9 12 13 13 12 11 9 8 8 7 5 3 4 6 8 9 8 6 5 5 6 8 9 9 8 9 8 7 6 6 7 7 7 8 7 6 6 6 6 7
20 20 21 20 18 18 17 16 15 14 12 11 11 11 13 15 15 14 14 14 13 12 13 13 13 12 12 11 10 10 9 9 8 8 9 9 9 9 10 10 9 9 8 9 10 11 13 14 13 12 10 9 8 8 7 5 4 4 6 9 8 7 5 5 5 6 7 8 8 8 8 8 7 7 6 6 6 6 6 6 6 6 5 5 5
22 22 21 19 19 18 15 15 15 14 12 11 10 10 11 15 15 15 15 14 12 12 13 13 12 12 11 10 9 9 8 8 7 7 9 9 9 9 9 10 10 9 9 9 10 12 14 15 14 11 9 8 8 7 6 5 4 4 6 8 7 6 4 4 5 5 6 7 8 8 8 8 7 7 6 6 6 5 5 5 7 7 8 8 7
22 23 22 20 19 17 15 15 15 13 12 11 10 9 11 15 15 14 15 13 11 12 12 12 11 11 10 9 8 7 7 7 6 6 8 9 9 9 9 10 9 9 9 9 10 12 14 14 13 11 9 8 7 7 5 4 3 3 4 6 6 5 4 3 4 5 5 6 7 8 8 8 8 7 6 5 5 5 5 5 6 7 8 9 9
22 23 23 21 19 18 17 15 14 13 11 10 9 10 11 13 14 14 14 12 12 12 11 11 10 10 9 8 7 6 6 6 5 6 7 7 8 8 8 9 9 8 8 8 9 11 13 13 12 10 9 8 7 6 4 2 2 2 2 4 5 4 3 3 4 4 4 4 6 7 7 7 7 7 6 6 5 6 6 5 6 6 6 7 8
22 22 23 22 20 19 18 15 14 13 11 10 10 11 11 12 13 13 11 12 13 12 10 10 9 8 8 7 6 5 5 4 4 5 5 6 7 8 7 7 7 7 7 7 7 10 12 12 11 10 9 7 6 4 2 2 1 1 1 4 5 4 3 2 3 4 3 4 5 6 7 7 7 6 5 5 6 5 4 3 5 6 5 6 6
22 22 22 22 21 20 19 16 15 13 11 11 11 12 12 12 13 12 10 12 14 12 10 10 8 7 7 6 5 5 4 3 2 3 4 5 6 6 6 6 6 6 6 6 6 8 11 11 11 9 9 7 6 4 1 2 2 2 1 4 6 5 3 2 3 4 3 4 5 5 6 8 8 6 5 5 5 3 2 3 5 5 4 4 5
22 22 22 22 22 20 19 17 15 12 11 11 12 13 13 12 11 11 10 13 14 12 11 10 8 7 6 6 5 5 4 3 1 1 3 4 5 5 5 5 4 4 5 5 4 5 9 10 10 10 9 8 7 4 1 2 2 2 2 4 6 5 3 2 2 3 4 4 4 5 6 8 7 5 4 4 3 2 1 3 4 4 3 3 3
21 22 21 22 21 20 19 17 14 12 11 13 13 13 13 11 11 10 11 12 12 12 12 11 10 8 7 7 6 5 4 3 1 1 2 4 4 5 4 4 3 3 3 3 3 3 6 9 9 10 10 9 7 5 2 0 1 2 2 3 5 5 3 2 1 2 3 3 3 4 5 6 6 4 4 3 2 2 1 2 3 4 3 2 2
21 21 21 21 21 19 18 16 14 12 11 12 12 12 13 12 11 11 11 11 10 11 12 11 10 9 7 7 7 5 4 3 2 2 3 4 3 4 3 3 2 2 1 1 1 2 3 6 9 9 10 10 8 6 4 2 1 2 1 2 4 5 4 3 2 1 1 2 2 3 4 5 5 4 3 3 2 1 1 2 4 3 3 3 2
21 21 20 20 20 18 17 15 14 12 12 12 12 12 12 11 11 11 12 12 11 10 11 10 10 9 7 6 7 6 5 3 2 2 3 3 3 4 4 2 3 2 2 2 1 1 1 3 6 9 10 10 9 8 6 4 3 1 1 2 4 5 5 4 3 2 1 1 1 1 3 4 5 5 4 4 3 2 2 3 3 3 3 3 2
20 21 20 20 19 17 15 14 13 12 13 12 12 12 10 10 9 11 12 12 11 10 10 9 9 8 7 5 5 6 5 3 2 1 1 2 2 4 5 4 4 4 4 4 4 3 3 2 4 6 9 10 10 9 8 6 4 2 1 0 3 4 6 6 5 4 3 2 2 2 2 4 6 6 6 6 6 5 4 3 4 3 3 3 3
19 19 19 19 18 16 14 14 13 13 13 12 12 11 10 9 9 11 12 11 11 10 9 9 8 7 6 5 5 5 5 3 1 0 1 2 3 4 5 5 5 5 5 5 6 6 5 5 4 4 7 10 11 10 10 8 6 4 1 0 1 2 4 6 7 6 6 5 4 3 3 4 5 6 6 7 7 6 5 4 4 4 5 4 3
17 18 18 18 17 15 14 13 13 13 13 13 13 11 10 10 10 11 11 11 11 10 9 8 7 5 4 4 4 4 4 3 1 1 3 3 4 5 6 6 6 6 6 6 6 8 8 7 6 6 6 8 11 11 11 10 8 6 4 2 1 2 3 5 7 8 8 7 7 5 4 5 6 6 5 6 6 7 6 5 5 5 5 5 3
17 17 18 18 17 16 14 13 13 13 13 13 13 12 11 11 9 10 10 10 10 9 8 7 6 4 3 3 4 4 4 3 2 3 4 5 6 7 7 8 8 8 8 8 8 8 10 10 9 8 7 7 9 12 12 11 10 8 7 6 5 5 5 6 8 10 10 10 9 8 7 7 7 6 7 7 6 7 8 7 6 5 4 4 3
18 17 18 18 17 16 14 14 13 13 12 12 12 11 11 11 10 9 9 9 9 8 7 6 5 4 3 3 3 3 4 4 5 6 7 7 8 9 9 9 10 10 10 10 10 9 10 12 12 11 10 9 9 11 13 13 12 11 11 10 9 9 8 8 9 10 12 13 11 11 9 9 8 7 9 9 8 8 8 8 6 5 3 2 3
19 18 18 17 17 15 14 13 12 12 11 11 11 10 10 11 11 10 10 9 8 6 6 5 5 3 2 2 3 4 5 6 7 8 10 11 11 11 11 11 11 11 11 12 12 11 10 10 13 13 13 12 10 10 12 14 14 13 13 13 13 12 12 12 12 12 13 14 14 13 11 10 10 10 12 11 9 8 7 8 7 5 5 3 4
20 18 17 16 16 15 14 12 11 10 9 9 10 10 10 11 10 10 9 8 7 6 5 5 4 4 3 3 4 6 7 9 10 11 13 14 14 14 14 13 13 13 13 13 14 14 13 12 12 13 14 14 13 12 13 15 16 15 15 15 16 16 15 15 15 14 14 16 16 15 13 12 12 12 13 11 10 10 6 8 8 6 6 5 4
19 18 15 14 15 15 13 12 11 10 9 8 8 9 9 9 8 8 8 7 7 6 6 5 4 4 4 5 7 8 10 11 13 14 15 16 16 17 17 16 15 14 14 15 15 15 16 16 15 14 14 14 15 15 15 17 18 18 17 17 18 18 18 17 17 15 15 16 17 17 14 13 13 14 14 12 11 12 7 8 10 7 6 5 5
18 17 15 13 14 15 13 11 11 9 8 7 7 7 7 7 6 6 6 5 5 5 5 4 4 5 6 7 8 10 12 13 14 14 15 16 17 17 18 17 17 16 15 16 16 16 18 19 18 17 17 16 16 16 16 18 19 20 20 19 19 20 20 19 17 16 16 17 18 18 16 14 14 14 15 14 13 13 10 9 10 9 8 5 6
16 16 13 12 14 15 13 12 11 9 8 7 6 7 6 6 5 5 4 4 3 3 4 5 6 7 8 9 10 11 12 13 13 14 14 15 16 16 16 16 16 15 15 16 17 18 19 20 19 18 18 18 18 18 17 17 19 21 21 20 20 20 20 19 17 16 17 18 20 20 18 16 15 15 16 16 15 14 12 10 10 10 9 6 7
16 16 13 12 14 15 13 12 11 10 8 7 7 6 6 6 4 4 4 4 4 5 6 7 8 9 10 11 12 12 12 12 12 13 13 14 14 15 15 15 15 15 15 16 17 18 19 21 19 18 18 18 19 19 18 18 19 20 20 19 19 19 18 17 16 16 17 18 21 21 19 18 16 16 17 17 17 16 13 12 12 12 10 8 8
17 16 14 12 15 16 14 13 12 10 9 7 7 6 5 4 3 4 4 5 6 6 7 9 9 10 11 11 11 11 12 11 11 11 12 12 13 14 14 14 14 14 15 15 16 17 18 20 19 17 18 18 18 19 20 20 19 17 17 17 16 16 15 15 15 14 15 17 21 22 21 20 19 17 17 18 18 17 15 15 15 14 11 9 8
17 16 14 13 14 15 14 13 12 10 9 8 7 5 4 3 3 4 4 5 6 7 7 8 8 9 10 10 10 11 11 10 10 10 11 12 12 13 13 13 13 14 14 14 14 15 16 17 17 16 17 18 18 18 20 20 17 17 18 17 15 15 14 14 15 13 12 16 20 23 23 22 22 20 19 19 19 17 17 18 17 15 13 11 10
17 16 15 13 13 14 14 13 12 11 10 9 7 5 3 3 3 3 4 5 6 7 7 7 8 9 9 9 9 9 9 9 10 11 12 12 12 13 13 14 14 14 14 13 13 13 14 15 16 17 17 17 17 18 20 19 16 19 21 20 18 17 16 16 15 14 14 16 20 23 25 24 24 22 20 20 19 18 18 19 17 15 15 13 11
17 17 16 13 13 13 13 12 11 11 10 9 7 5 3 2 2 3 4 5 7 7 7 8 8 8 8 8 8 8 8 9 10 11 11 12 13 14 15 15 14 14 14 13 13 12 12 14 16 17 16 17 17 18 19 19 19 22 23 22 22 20 18 18 18 18 18 19 22 25 26 26 26 24 22 22 21 19 19 20 18 16 15 14 14
16 15 15 13 12 12 12 11 10 11 10 9 7 5 3 2 3 4 5 6 6 6 6 6 6 6 6 6 6 7 8 9 9 10 10 11 12 13 14 14 14 14 14 14 14 13 12 13 15 16 16 17 18 18 18 18 19 22 23 23 24 23 22 20 20 21 21 21 24 27 27 28 27 26 25 23 22 21 20 20 20 18 16 15 16
15 14 14 12 11 11 11 10 9 10 10 9 7 5 4 4 4 4 5 5 4 3 3 4 4 5 5 5 6 6 7 8 9 9 10 11 12 13 13 13 13 13 13 13 13 13 12 13 14 16 16 17 17 18 17 16 17 19 21 21 21 20 19 20 21 21 21 22 24 27 28 29 29 28 27 25 23 23 22 22 21 20 18 16 16
14 14 14 12 12 12 11 10 9 9 10 8 6 5 5 4 4 4 4 3 2 2 2 2 3 4 4 5 6 6 7 7 8 9 10 10 11 12 13 13 12 13 13 14 14 13 13 13 14 15 16 17 17 17 15 15 14 12 13 16 18 18 17 18 20 20 21 22 25 27 28 29 29 29 29 27 25 25 24 24 23 21 20 17 15
14 15 15 14 13 12 10 10 9 9 9 8 6 6 5 3 2 2 1 1 2 2 1 2 2 3 5 6 6 7 7 8 8 9 9 9 10 11 12 12 12 12 13 14 15 15 15 15 14 15 15 16 17 16 14 12 11 10 9 9 12 15 17 18 19 20 22 23 26 27 27 28 29 29 30 30 29 27 26 25 24 22 21 19 16
13 14 15 14 13 12 10 10 9 8 8 7 6 5 3 3 2 2 1 1 1 1 2 4 5 5 6 7 8 8 9 9 9 9 9 10 11 12 13 14 14 13 13 14 15 16 16 17 16 16 16 16 17 16 15 13 12 13 10 6 4 6 10 14 17 21 23 24 25 25 26 27 29 30 31 33 32 29 28 27 26 24 22 20 17
14 13 13 12 12 12 11 10 9 8 8 7 6 5 5 4 4 3 1 1 2 4 4 6 7 6 7 8 9 9 9 9 10 10 10 11 12 14 15 16 16 16 15 14 15 16 17 17 17 18 18 17 17 16 16 16 16 13 6 3 2 2 4 7 12 20 24 24 23 25 27 29 29 30 32 34 33 31 31 29 27 25 24 22 19
14 14 14 13 13 13 12 11 10 9 9 8 7 7 6 5 4 3 2 1 3 5 6 6 7 8 9 10 10 10 10 10 11 11 11 11 12 13 14 15 16 16 16 16 16 18 18 17 17 18 19 19 19 18 17 17 19 18 12 6 2 2 2 2 6 13 19 24 24 24 27 29 30 30 32 34 35 33 31 30 28 27 25 24 21
13 13 14 14 13 13 13 11 10 9 9 8 8 7 6 4 3 3 3 4 4 6 7 8 10 11 11 11 11 11 12 12 12 12 12 13 13 14 15 15 16 15 15 16 18 19 19 18 17 18 19 20 21 20 20 19 19 23 23 18 13 11 5 2 3 4 9 17 22 23 25 28 29 30 31 33 35 35 33 31 30 28 26 25 23
11 12 13 13 12 12 12 11 10 10 9 8 7 7 6 5 5 5 5 4 5 6 7 8 9 10 11 12 12 13 14 14 15 15 15 16 17 17 17 17 16 15 15 15 17 18 19 19 18 18 19 20 21 20 22 22 19 21 25 25 25 24 18 11 6 2 2 7 15 20 23 25 27 28 30 31 33 34 34 33 32 29 28 26 25
10 10 11 12 11 11 11 11 11 10 9 8 7 6 5 4 4 5 5 6 6 6 7 7 8 10 11 13 14 15 15 16 17 18 18 19 20 20 20 19 17 16 15 15 17 18 18 19 19 19 19 20 21 21 23 22 19 20 23 25 25 26 26 22 16 10 4 3 6 12 18 23 26 27 28 29 31 32 34 35 33 31 29 28 26
9 10 11 12 12 13 14 13 13 11 10 8 7 6 5 5 5 5 7 7 7 7 7 8 10 11 13 15 16 17 17 17 18 19 19 20 20 21 20 19 19 18 18 17 18 19 18 19 18 19 19 19 21 22 22 21 20 20 20 20 23 25 24 22 21 18 11 7 5 5 10 17 20 26 29 29 30 33 34 35 34 33 31 29 28
10 11 13 15 16 17 16 15 14 12 10 9 8 9 7 6 6 7 7 8 8 8 9 10 11 13 15 16 16 17 18 18 19 19 19 20 20 19 19 19 20 20 19 18 19 19 18 18 17 18 20 21 23 23 23 22 22 22 21 19 20 21 16 12 16 19 14 10 8 5 7 11 12 19 28 31 31 32 34 34 34 34 33 31 29
13 14 16 17 18 18 17 17 16 14 12 11 10 10 8 6 7 8 9 10 10 11 11 12 12 14 15 15 16 17 17 19 19 19 19 19 19 18 19 20 21 20 20 20 20 20 19 18 18 20 21 22 22 23 23 22 21 22 22 23 21 18 14 12 15 18 13 9 7 5 8 14 14 17 23 29 32 31 32 33 34 35 35 33 32
Wind_Direction
165 166 168 169 158 155 154 147 141 137 130 128 137 138 135 134 135 136 134 131 130 129 127 125 122 121 122 122 121 119 118 116 114 112 111 110 108 108 107 106 106 105 105 103 103 105 104 103 100 98 94 91 92 92 91 92 93 91 88 86 85 84 86 89 91 91 90 90 88 90 89 87 86 85 85 85 84 83 83 83 84 83 81 81 82
164 164 167 167 160 157 154 147 143 139 132 128 137 142 138 135 134 134 134 131 131 129 127 126 124 123 123 123 122 121 118 116 114 113 111 110 109 109 107 106 107 107 107 106 108 110 109 106 103 101 97 96 98 96 95 94 94 91 88 85 84 82 84 87 88 89 90 90 87 89 91 89 87 87 86 85 85 83 82 82 83 83 81 81 81
158 161 167 165 161 159 154 147 144 141 134 128 137 145 140 135 133 133 134 132 130 128 126 125 125 125 123 123 122 121 118 116 114 112 111 109 109 108 106 106 107 106 106 107 111 114 111 108 106 104 101 102 104 103 101 97 96 91 86 83 83 82 82 83 84 86 89 92 92 93 93 90 89 89 89 87 87 85 83 81 80 79 79 80 80
155 161 166 164 161 159 153 148 146 143 135 128 137 146 142 135 133 132 132 130 128 125 124 123 124 124 123 123 121 121 118 116 114 112 111 108 108 106 107 109 108 104 103 106 115 117 108 105 104 103 103 107 109 107 104 99 98 92 85 81 82 84 84 83 80 83 89 97 100 98 95 92 91 91 92 92 93 91 88 85 82 79 78 80 80
155 162 164 162 161 157 153 149 147 145 136 128 137 147 144 135 131 131 130 127 126 124 124 123 123 124 123 123 121 121 118 116 114 112 110 109 110 109 112 113 110 106 106 108 119 121 109 107 106 102 104 111 114 109 108 102 100 94 84 79 78 81 88 89 83 81 88 98 99 96 95 95 94 92 94 96 97 96 93 92 89 87 86 85 82
156 160 162 161 160 157 155 151 148 147 138 129 138 149 146 137 132 129 128 125 124 124 124 124 124 124 123 123 122 121 119 118 116 113 112 112 112 110 111 110 112 113 116 116 124 128 114 108 109 108 106 111 118 114 113 107 102 95 82 75 74 83 93 93 85 77 80 94 97 94 96 98 96 91 91 92 93 96 98 99 96 93 89 87 85
156 158 160 161 159 158 157 152 150 149 139 131 139 150 147 138 133 128 127 124 124 124 124 126 125 124 123 123 122 121 120 117 116 115 111 107 104 100 99 99 105 106 113 116 127 135 128 116 110 113 108 109 123 123 120 114 104 91 71 62 72 101 119 102 87 78 84 100 100 99 99 98 96 92 87 85 85 87 92 95 94 95 92 91 90
154 157 160 161 159 160 159 153 151 150 141 134 139 150 148 137 132 128 127 126 124 124 124 125 124 124 123 123 122 121 119 116 116 115 109 103 99 94 91 91 93 92 100 106 119 135 138 133 119 117 112 115 130 129 124 115 99 74 55 58 72 111 141 115 91 89 102 109 105 103 101 96 95 92 85 82 82 85 89 89 86 87 88 92 94
154 157 160 160 160 161 160 154 152 151 143 136 139 149 148 136 131 129 129 128 126 125 125 125 124 125 124 124 123 121 119 115 114 112 109 104 100 93 92 92 92 94 97 99 110 129 141 143 129 120 116 126 137 133 125 109 87 61 51 55 67 110 142 122 100 100 109 113 108 102 99 96 94 88 81 79 81 89 94 95 91 86 83 83 83
154 157 159 159 159 162 160 155 153 152 145 137 137 147 149 138 133 132 131 130 128 127 127 128 127 126 125 125 123 122 119 116 115 112 110 104 98 91 89 87 86 89 91 92 99 118 140 144 134 126 129 137 142 136 123 101 77 58 53 60 73 111 134 123 110 108 112 117 110 100 97 93 88 83 80 82 86 93 95 96 98 98 94 88 82
154 157 158 158 158 161 160 156 155 152 145 138 135 146 151 142 137 136 134 134 132 131 129 130 129 126 126 127 126 124 121 119 113 106 102 98 93 88 85 82 83 87 94 100 98 110 138 147 141 139 142 145 146 137 115 94 76 61 77 90 97 119 127 118 113 111 118 121 114 106 102 94 86 81 79 82 89 99 105 105 103 106 105 101 99
153 156 155 156 158 160 160 158 156 152 146 138 134 143 152 147 141 142 140 139 138 135 132 132 130 129 129 129 129 125 122 118 110 104 99 93 89 86 86 82 85 96 108 114 106 112 136 152 156 155 155 152 146 129 109 95 80 83 114 119 118 123 121 115 108 109 123 124 117 113 107 97 88 84 81 81 83 91 104 110 108 112 111 110 112
151 153 153 155 157 160 161 158 155 153 148 140 136 141 151 154 148 147 146 142 142 139 136 134 133 133 133 131 130 127 123 118 112 108 98 89 86 84 84 79 79 89 100 105 107 116 134 150 160 164 162 155 139 121 107 91 74 94 128 135 133 129 122 111 98 110 127 130 125 119 110 100 96 96 93 87 84 87 98 107 109 113 115 120 122
150 152 152 157 157 158 160 157 155 155 152 142 139 142 151 160 156 153 150 144 145 143 138 136 136 138 137 136 135 131 124 116 110 100 92 86 83 81 79 76 75 80 89 101 111 123 136 147 156 162 162 149 131 120 102 82 73 99 137 146 142 136 124 107 103 115 129 137 134 125 116 111 108 102 99 98 95 99 103 104 102 103 106 118 128
149 151 154 158 156 156 157 155 159 158 154 145 142 144 151 162 162 159 153 146 148 145 138 138 138 140 143 142 140 133 125 117 109 94 86 82 79 77 73 73 74 75 82 97 113 127 140 148 153 157 153 141 129 118 97 82 82 104 142 149 145 137 118 99 103 115 127 139 139 136 129 122 116 106 105 106 103 105 105 99 94 94 90 94 99
150 153 156 157 156 156 156 158 163 161 154 147 146 146 153 162 162 161 154 147 149 145 140 141 141 144 148 145 141 135 128 120 108 90 78 74 73 68 64 67 69 69 75 94 115 132 143 149 154 154 146 140 128 112 96 89 87 96 142 154 151 138 116 88 94 110 125 136 142 142 136 131 126 117 113 111 106 102 103 101 95 90 85 86 87
153 156 155 155 157 156 159 162 163 161 155 150 150 152 156 160 160 157 153 150 149 145 143 145 145 146 149 146 143 138 129 121 107 90 74 67 65 59 55 57 62 63 69 90 118 137 147 154 157 154 148 142 127 113 100 93 83 82 143 164 162 146 123 86 86 105 124 139 144 140 137 138 130 122 119 113 109 108 106 103 103 98 90 90 89
156 157 155 156 159 159 163 165 164 162 157 153 155 157 155 156 155 151 151 155 150 145 146 147 148 147 149 148 143 141 135 124 107 89 70 57 54 50 49 50 56 61 62 79 116 142 151 158 161 158 154 145 134 127 99 59 52 65 136 173 175 164 139 103 87 95 116 139 142 138 132 128 126 124 126 117 116 121 110 102 113 110 103 104 99
158 159 157 159 161 163 166 166 167 162 158 159 158 154 151 152 150 147 152 155 151 149 148 147 149 148 153 151 141 143 139 126 111 81 59 49 43 37 39 42 49 59 61 67 102 146 158 164 167 166 162 154 152 153 98 26 16 59 104 168 178 177 155 119 88 90 105 130 139 137 130 130 134 134 129 125 126 130 111 118 123 112 107 112 107
159 161 161 164 165 166 167 167 167 162 161 161 157 152 151 154 150 150 152 153 156 156 150 146 148 150 159 160 154 153 145 134 115 47 36 33 31 27 27 30 34 51 63 64 84 144 168 174 176 175 173 168 170 176 136 19 7 56 103 161 178 183 171 143 96 93 100 118 135 134 133 137 140 136 131 132 134 135 132 137 135 122 117 121 121
162 164 164 167 169 169 169 168 164 162 163 160 157 152 152 155 153 151 150 154 162 164 158 151 153 158 166 169 168 168 167 176 212 342 3 10 20 20 13 15 15 26 50 64 74 126 174 187 188 187 186 182 185 192 183 156 5 41 97 160 180 185 184 178 129 100 102 115 129 135 141 141 139 141 141 141 145 163 183 165 151 147 138 134 151
164 165 168 171 170 170 171 168 164 163 161 157 155 149 154 161 159 153 152 159 164 169 171 166 167 172 179 187 186 187 195 208 257 322 357 3 12 14 5 360 351 342 349 32 66 97 174 197 203 204 200 196 198 205 208 204 257 9 75 161 188 199 205 212 208 141 113 119 131 145 148 146 149 161 169 168 180 191 177 155 153 158 161 154 169
163 165 170 174 173 170 171 169 165 164 159 152 149 148 157 166 165 160 157 163 169 174 178 179 184 188 192 203 206 210 217 236 281 333 356 352 9 20 15 353 328 308 293 294 297 300 204 207 213 219 216 211 211 217 220 212 220 307 17 164 192 215 224 228 233 224 205 175 170 168 161 163 170 183 192 188 196 191 162 159 163 175 180 183 206
163 167 170 176 176 170 169 170 164 163 157 146 146 151 157 162 162 162 163 168 177 179 181 186 194 200 206 219 223 222 230 250 285 346 328 324 18 25 19 9 346 323 298 287 285 282 278 256 232 229 227 223 222 228 229 222 214 212 360 143 189 218 233 238 245 242 237 235 235 215 183 181 185 204 207 196 196 187 181 188 186 191 191 202 216
164 167 171 177 179 173 171 169 163 160 154 145 149 156 156 159 159 162 169 173 180 184 187 192 198 207 217 228 227 219 218 214 205 34 335 328 350 354 356 359 354 343 321 294 280 275 274 272 261 245 236 232 229 233 234 230 225 208 195 92 170 206 231 246 250 250 248 243 242 235 210 198 207 227 221 205 198 183 183 193 197 197 197 210 218
165 168 174 179 180 176 175 169 161 158 156 153 155 160 163 168 163 163 171 175 180 183 185 186 188 198 203 211 209 197 193 183 194 317 331 328 326 325 326 327 332 337 331 314 288 271 267 266 265 259 249 240 234 234 235 235 238 234 234 256 262 244 245 258 258 256 253 248 246 240 227 218 230 239 219 201 193 180 182 189 197 199 207 225 230
171 175 178 181 180 178 180 172 163 161 164 167 165 163 170 176 168 167 175 173 176 177 175 174 174 179 178 189 192 190 197 215 276 306 316 319 321 321 317 314 316 320 323 322 312 288 270 262 262 262 257 252 240 234 233 238 247 251 258 273 284 276 266 267 267 262 256 251 246 242 236 228 238 232 204 202 196 186 187 189 192 201 222 228 215
176 181 182 182 181 180 181 175 167 167 172 176 174 171 171 173 172 177 182 178 178 175 171 174 177 175 172 192 206 223 248 280 302 313 313 314 316 315 313 310 310 314 316 316 318 313 290 270 262 261 260 260 252 238 232 238 252 260 268 280 287 283 277 275 273 265 255 250 246 244 241 233 236 217 205 221 213 193 189 193 195 197 203 157 171
178 183 186 184 182 181 180 175 171 172 176 179 181 179 171 172 178 184 185 186 185 178 179 184 190 197 212 242 261 276 293 304 310 314 313 313 312 312 310 306 305 306 308 309 311 314 310 289 270 266 266 266 263 250 238 240 252 264 274 285 290 289 286 283 278 268 255 248 245 246 244 237 234 214 216 233 217 197 186 194 208 195 188 166 168
179 181 184 184 181 180 178 174 171 171 174 177 182 183 177 177 181 183 185 191 190 186 193 199 210 228 252 281 300 305 308 309 310 311 311 312 312 311 309 306 304 302 302 304 304 304 306 302 290 280 275 274 272 267 258 253 256 266 276 284 288 290 290 289 284 271 254 246 243 245 245 239 235 223 224 231 210 207 190 182 202 196 187 193 188
178 180 181 181 178 178 176 172 171 171 171 173 181 183 182 182 180 181 188 195 192 192 201 214 232 251 280 299 308 308 307 306 307 310 311 312 311 309 309 306 303 302 301 300 297 296 294 293 293 291 285 282 278 274 271 267 263 265 272 278 282 286 287 289 287 274 255 244 241 242 243 239 235 230 227 224 213 215 205 180 190 192 189 193 210
177 181 182 175 173 177 176 174 173 172 173 175 181 181 180 180 179 184 193 200 198 203 217 239 259 279 297 304 308 305 305 306 308 311 311 310 309 308 308 306 305 304 301 299 296 291 286 285 286 285 283 282 279 275 275 274 271 267 269 272 275 280 281 284 286 277 258 244 239 239 239 238 233 230 226 223 223 218 211 198 191 194 196 199 224
176 180 181 173 173 177 177 178 176 175 177 175 175 175 177 181 186 191 201 215 223 242 265 280 288 296 303 306 309 308 308 309 309 308 307 306 306 306 306 307 308 307 303 301 300 295 290 288 285 283 281 278 275 273 276 279 278 273 271 272 274 278 280 281 281 272 258 241 235 236 237 236 231 229 226 221 225 224 215 210 203 203 202 205 222
176 180 177 172 176 179 179 181 180 181 181 177 178 178 182 192 205 217 234 254 270 286 291 296 301 304 305 306 308 307 307 306 302 300 299 300 301 302 305 308 311 310 306 303 301 300 297 293 292 291 287 283 278 274 275 278 279 279 277 278 280 280 281 280 275 268 259 241 231 232 234 237 232 228 228 221 222 226 219 212 208 206 203 203 212
179 179 176 174 177 180 184 186 186 189 190 189 192 189 190 204 227 246 265 282 286 289 293 301 307 305 301 300 301 301 302 300 296 296 299 302 302 303 307 310 311 309 305 302 298 297 296 295 295 295 290 287 284 278 275 274 277 279 278 279 281 279 277 274 270 266 259 244 233 230 231 235 234 230 228 223 221 225 223 217 210 203 201 201 199
182 178 177 177 179 184 189 192 193 198 202 206 207 203 207 224 243 259 279 292 295 299 303 303 299 294 292 292 296 296 297 300 301 304 305 304 304 304 307 310 310 307 303 299 294 292 293 295 295 293 290 288 285 281 275 272 273 273 271 272 275 274 271 266 262 258 253 248 242 235 230 230 232 231 229 225 223 224 223 223 220 208 203 203 196
186 182 181 179 179 186 194 198 201 205 211 217 215 213 220 228 242 260 278 293 296 295 293 289 287 287 290 293 296 298 300 305 308 306 304 304 305 306 307 309 309 309 309 303 293 290 293 295 294 291 290 290 286 280 272 267 266 270 271 271 270 269 266 259 255 253 252 253 248 238 231 229 229 230 230 227 225 225 223 226 227 214 202 200 198
188 186 184 181 180 185 194 200 204 208 211 214 214 211 210 209 235 264 279 288 286 285 287 292 297 299 300 302 304 307 306 306 306 303 304 306 306 306 307 308 309 311 315 313 306 297 292 290 289 288 290 289 286 282 277 271 266 266 269 269 268 267 264 258 256 255 253 252 248 238 231 228 228 229 230 228 228 228 226 227 227 219 208 200 201
187 187 184 184 182 183 191 197 203 207 205 207 210 207 207 221 243 262 274 281 287 295 301 302 308 310 312 316 316 316 313 309 309 309 310 311 310 311 313 313 311 310 310 311 310 306 301 293 286 284 285 285 284 283 282 281 276 271 269 270 270 268 263 259 257 257 253 248 243 238 233 229 228 229 230 229 228 229 227 226 225 222 218 208 207
178 181 181 182 180 179 184 189 197 202 202 206 209 206 213 230 242 258 270 276 288 307 316 318 322 320 321 328 327 325 321 319 320 320 322 323 322 322 321 320 316 310 303 300 302 301 301 297 290 286 284 285 285 283 285 285 280 275 275 274 273 269 265 262 259 256 250 242 238 238 235 231 229 230 232 230 228 229 228 226 226 223 224 215 212
164 170 173 173 174 176 177 176 181 191 196 200 200 201 213 226 243 262 269 272 292 314 336 342 339 341 342 343 345 344 340 340 338 335 337 336 333 330 325 322 317 310 304 301 301 297 293 291 288 285 282 281 280 280 286 282 269 261 267 269 265 263 263 261 258 252 244 239 238 240 239 235 231 229 233 233 228 228 227 226 227 225 224 219 214
157 166 170 169 173 175 171 166 168 181 188 193 195 199 209 219 238 259 277 282 284 299 329 360 7 16 12 8 10 9 5 6 3 357 354 348 343 338 332 327 319 311 307 306 306 302 296 292 287 282 278 275 273 275 279 273 253 239 240 250 254 253 252 251 250 248 244 241 240 240 240 238 233 230 232 234 228 226 227 226 226 226 224 220 215
155 164 170 169 172 173 171 170 168 176 181 183 185 184 187 192 203 218 269 289 309 357 31 48 44 35 30 28 25 20 16 13 12 8 3 356 348 342 337 332 326 319 311 307 308 306 301 297 291 284 279 274 269 266 263 254 246 244 241 240 237 237 245 242 242 245 243 242 241 239 240 239 237 235 234 235 230 225 226 225 225 226 225 221 216
152 158 166 167 169 170 170 168 164 166 167 162 161 164 171 178 186 200 209 187 59 48 52 56 46 37 34 30 24 19 17 15 11 7 359 353 345 339 336 331 329 325 316 306 307 310 305 301 295 287 280 273 265 261 259 251 245 242 232 236 226 204 245 230 230 242 240 238 239 237 239 239 238 239 236 235 233 228 226 225 225 226 225 223 218
152 157 164 165 167 167 163 160 157 157 157 157 159 164 168 169 180 183 157 82 46 37 33 29 20 19 19 19 17 12 12 11 5 359 351 344 339 334 331 326 324 322 317 311 308 311 310 306 300 290 280 271 267 266 264 254 245 241 234 233 232 221 261 190 210 246 242 235 236 234 236 238 238 238 236 234 233 231 228 225 225 225 224 224 220
154 159 163 163 162 159 155 155 157 158 159 160 157 154 148 133 131 125 85 45 37 31 19 10 7 10 10 7 7 5 4 1 356 352 348 344 340 335 330 324 320 316 314 312 310 310 309 306 303 296 286 280 274 267 266 264 251 242 238 238 244 245 247 152 168 261 251 237 236 233 233 236 237 237 234 232 231 231 229 226 225 224 223 224 221
153 158 159 159 156 152 150 150 151 151 150 148 141 132 123 103 87 85 76 55 48 35 18 13 10 8 3 354 355 358 357 353 350 349 347 344 341 338 335 331 326 321 316 311 310 308 304 301 299 296 292 291 284 268 265 268 253 243 241 240 245 248 243 231 214 234 268 239 235 233 234 235 235 235 233 232 231 230 229 226 225 224 223 222 220
148 152 151 148 148 146 142 140 137 135 134 135 130 117 106 96 90 90 81 65 51 37 23 14 6 2 356 348 347 347 347 347 345 344 342 341 340 338 336 334 331 328 324 317 312 309 305 302 300 298 294 292 290 278 270 269 259 251 246 237 240 248 245 237 230 233 249 253 232 229 234 236 235 235 235 234 232 230 230 228 225 224 223 222 220
135 138 137 132 132 133 132 132 128 126 128 128 121 108 97 94 94 84 68 56 40 27 14 360 355 353 348 343 340 339 340 340 339 338 339 340 339 338 338 337 335 333 329 321 312 308 305 303 303 302 297 293 291 286 278 275 274 270 260 242 237 244 246 238 229 231 236 240 234 214 224 230 231 234 235 235 234 232 232 230 226 224 224 222 220
122 126 130 128 128 129 129 124 118 119 119 116 110 100 93 87 76 60 45 32 15 3 352 347 347 345 342 341 340 339 338 336 335 338 340 341 341 342 342 341 340 338 334 328 321 317 312 307 306 304 301 296 289 284 280 279 283 283 282 273 252 238 235 229 222 223 225 230 236 230 212 209 217 228 229 231 233 232 232 231 227 225 225 223 221
127 127 129 131 130 128 126 119 114 114 111 107 102 93 85 69 54 38 23 11 1 355 350 350 350 347 344 342 340 340 338 337 339 342 344 345 346 346 347 348 348 346 342 337 332 329 324 318 314 309 306 301 290 283 280 279 282 285 286 285 276 260 247 238 222 215 214 216 226 238 218 209 216 225 225 227 229 230 230 229 226 225 225 224 222
Height
784 787 789 790 791 791 791 791 793 794 795 795 795 796 796 797 798 799 799 800 801 802 803 803 803 804 805 806 807 808 808 809 809 809 810 811 811 812 812 813 814 814 815 816 816 817 818 818 819 820 820 821 821 821 822 822 822 823 823 823 824 824 825 825 825 825 825 825 826 826 826 826 826 825 825 825 825 825 825 825 825 825 825 825 824
783 787 789 790 791 791 792 792 794 794 795 796 796 797 798 798 799 800 801 802 803 803 804 804 805 805 806 807 808 809 809 809 810 810 811 812 812 813 814 814 815 816 816 817 817 818 818 819 820 820 821 822 822 822 823 823 824 824 824 825 825 826 826 827 827 827 827 827 827 827 827 826 827 827 827 827 827 827 827 827 826 826 827 826 826
784 788 789 790 792 792 792 793 794 795 796 797 797 798 799 800 801 802 802 803 804 805 805 805 806 807 807 809 809 810 810 811 811 811 812 813 813 814 815 816 816 817 817 818 818 819 819 820 820 821 822 823 823 824 824 825 825 825 826 826 826 827 827 828 828 828 828 828 828 829 828 827 829 828 828 828 828 828 828 828 828 827 828 828 827
785 787 789 791 792 793 793 794 795 796 797 798 799 799 800 801 802 804 804 804 805 806 807 807 807 808 809 810 810 811 812 812 813 813 814 814 815 815 816 817 817 818 819 819 820 820 820 821 821 822 823 824 824 825 825 826 826 827 827 827 828 828 828 829 829 829 830 829 829 830 829 829 830 830 830 830 829 829 829 829 828 828 829 829 828
786 788 790 791 793 794 794 795 797 797 798 799 800 800 802 802 804 805 806 806 807 808 809 809 809 809 810 811 812 812 813 813 814 815 815 815 816 816 817 818 818 819 819 820 821 821 822 822 822 822 823 824 825 826 826 827 827 828 828 829 829 829 829 830 830 830 831 830 830 830 830 830 831 831 831 831 830 830 830 829 829 829 829 829 829
785 788 790 792 794 794 795 796 797 799 799 800 801 802 803 804 806 807 807 808 809 810 810 811 810 811 811 812 813 814 814 815 815 816 816 817 817 818 818 819 819 819 820 821 821 822 823 823 823 824 824 824 825 826 827 827 828 828 829 829 830 830 830 830 830 831 831 831 831 831 831 831 832 832 832 831 831 830 830 830 830 830 830 830 830
785 788 790 792 794 795 796 797 798 800 801 802 802 803 804 806 807 808 809 810 811 811 812 812 812 812 813 814 815 815 816 816 817 817 818 818 818 819 819 819 820 820 821 821 822 823 824 824 825 825 826 825 826 826 827 828 828 829 829 829 830 830 830 831 831 831 832 832 832 832 833 833 833 833 833 832 832 831 831 831 830 831 831 831 830
786 789 791 793 794 796 797 798 800 801 802 803 804 805 806 807 809 810 811 812 812 813 813 814 814 814 815 816 816 817 817 818 818 818 819 819 819 819 820 820 820 821 821 822 823 823 824 825 826 827 827 827 827 827 828 828 829 829 829 829 830 830 830 831 831 832 832 833 833 833 834 834 833 833 834 833 833 832 831 831 831 831 831 831 831
787 789 791 793 794 796 798 799 801 802 803 804 805 806 807 809 810 811 812 813 814 814 815 815 816 816 816 817 818 818 819 819 819 819 820 820 820 820 821 821 821 822 822 823 823 824 825 825 826 827 828 828 828 829 829 829 829 830 830 830 830 831 831 832 832 832 833 833 834 834 834 834 834 834 834 834 834 833 832 832 832 832 832 832 832
788 790 792 794 795 797 798 800 801 803 804 805 806 807 808 810 812 813 814 815 815 816 816 817 817 817 818 819 819 819 820 820 820 821 821 821 821 821 822 822 822 823 823 824 824 825 826 826 827 828 828 829 829 830 830 830 830 830 831 831 831 832 832 833 833 833 833 834 834 835 835 835 835 835 835 835 834 834 833 833 833 833 832 832 832
789 791 793 795 796 798 799 801 802 803 805 806 807 808 809 811 812 814 815 815 816 817 817 818 818 819 820 820 820 821 821 821 821 822 822 822 822 822 823 823 823 824 824 825 825 826 826 827 828 828 829 830 830 831 831 831 831 831 832 832 832 833 833 834 834 834 834 834 835 835 836 836 836 836 836 836 835 835 834 834 834 834 833 833 833
791 792 794 796 797 799 800 802 803 804 805 806 808 809 810 811 813 814 815 816 817 817 818 819 819 820 821 821 822 822 822 822 823 823 823 823 823 823 824 824 824 825 825 825 825 826 827 828 829 829 830 831 831 832 832 832 832 832 833 833 833 834 834 834 835 835 835 835 835 835 836 836 836 837 837 836 836 836 835 835 835 835 835 834 834
792 793 795 797 798 800 801 802 803 804 806 807 808 809 810 812 813 814 815 816 817 818 819 820 820 821 822 822 823 823 823 823 824 824 824 824 824 824 824 825 825 825 825 825 826 826 827 829 830 830 831 832 832 833 833 833 833 833 833 834 834 835 835 835 835 835 836 836 836 836 836 837 837 837 837 837 837 837 837 836 836 836 836 835 835
792 794 796 798 799 801 802 803 804 805 806 807 808 809 810 812 813 814 816 817 818 819 819 820 821 822 823 823 823 824 824 824 825 825 825 825 825 825 825 826 826 826 826 826 827 827 828 829 830 831 832 833 833 833 833 833 833 833 834 834 835 835 836 836 836 836 836 836 837 837 837 837 838 838 838 838 838 838 838 837 837 837 837 836 836
792 794 797 799 800 802 803 804 804 805 806 807 808 809 811 812 813 815 816 817 818 819 820 821 822 823 823 824 824 825 825 825 826 826 826 826 826 826 826 827 827 827 827 827 827 828 829 830 831 832 833 834 834 834 834 834 834 834 834 835 835 836 836 836 837 837 837 837 837 837 838 838 838 839 839 839 838 838 838 838 838 838 838 837 837
794 795 797 799 800 802 803 804 805 806 807 808 809 810 811 812 814 815 817 818 819 820 821 822 823 824 824 825 825 826 826 826 827 827 827 827 827 827 828 828 828 828 828 828 829 829 830 831 832 833 834 835 835 834 834 834 834 835 835 835 836 836 837 837 837 837 838 838 838 838 838 838 839 839 839 839 839 839 839 839 839 839 838 838 837
795 796 797 799 801 802 803 804 805 806 808 809 809 811 812 813 814 816 817 819 820 821 822 823 824 825 825 826 827 827 827 828 828 828 828 828 828 828 828 829 829 830 829 830 830 830 831 832 833 834 835 835 836 835 835 835 835 835 835 836 836 837 837 837 837 838 838 838 838 838 839 839 839 839 840 840 840 839 839 839 840 839 839 839 838
796 797 798 799 801 802 803 805 806 807 808 809 810 811 812 814 815 817 818 819 821 822 823 824 825 826 826 827 827 828 828 829 829 829 829 829 829 829 829 830 830 830 831 831 831 831 832 832 833 834 835 836 836 836 836 836 835 835 835 836 836 837 837 838 838 838 838 838 839 839 839 839 839 840 840 840 840 840 840 840 840 840 840 840 839
797 798 798 799 800 802 803 805 806 807 809 810 811 812 813 815 816 817 818 820 821 822 823 824 826 827 827 828 828 829 829 829 830 830 830 830 830 830 830 830 830 831 831 832 832 832 832 833 834 834 835 836 836 836 836 836 836 836 836 836 836 837 837 838 838 838 838 838 839 839 839 839 840 840 840 840 840 840 840 840 840 840 840 840 840
798 798 799 800 800 802 803 805 806 808 809 810 811 812 814 815 817 818 819 820 821 822 824 825 826 827 828 828 829 829 830 830 830 830 830 830 830 830 830 831 831 831 832 832 833 833 833 833 834 834 835 836 836 836 836 836 837 837 836 836 836 837 838 838 838 838 839 839 839 839 839 839 840 840 840 840 840 840 840 840 841 841 841 841 840
798 799 799 800 801 803 804 805 807 808 809 810 812 813 814 816 817 818 819 821 822 823 824 825 826 827 828 828 829 830 830 831 831 831 831 831 831 831 831 831 831 832 832 833 833 833 834 834 834 835 835 835 836 836 836 837 837 837 837 837 837 837 838 838 838 839 839 839 839 839 839 839 840 840 840 840 840 840 840 840 841 841 841 841 841
798 799 799 800 801 803 804 806 807 809 810 811 812 813 815 816 818 819 820 821 822 823 824 825 826 827 828 828 829 830 830 831 831 831 831 831 831 832 832 831 832 832 833 833 833 834 834 835 835 835 835 835 836 836 836 837 837 837 838 838 838 838 838 838 838 839 839 839 839 839 839 839 840 840 840 840 840 840 840 840 841 841 841 841 841
797 798 800 801 802 804 806 807 808 809 810 812 813 814 816 817 818 819 820 821 822 823 824 826 826 827 828 828 829 830 830 831 831 831 831 832 832 832 832 832 832 832 833 833 834 834 834 835 835 835 835 836 836 836 836 837 837 837 838 838 838 838 838 838 838 839 839 839 839 839 839 839 840 840 840 840 840 840 840 840 841 841 841 841 841
798 799 801 802 804 805 807 808 809 810 811 812 814 815 816 817 818 819 820 822 823 824 825 826 826 827 828 828 829 830 830 831 831 832 832 832 832 832 832 833 833 832 833 833 834 834 835 835 835 835 835 836 836 836 836 836 837 837 837 837 838 838 838 838 838 839 839 839 839 839 839 839 839 839 839 839 839 839 840 840 840 841 841 841 841
799 800 802 803 805 806 808 809 810 811 812 813 814 816 817 818 818 819 821 822 823 824 825 826 826 827 828 828 829 829 830 831 832 832 832 832 832 833 833 833 833 833 833 833 834 834 834 835 835 835 835 836 836 836 836 836 837 837 837 837 837 837 838 838 838 839 839 839 839 838 838 838 838 839 838 838 838 838 839 839 840 840 840 840 840
800 801 802 804 805 807 808 809 810 811 812 813 814 816 817 818 818 820 821 822 823 824 825 826 827 827 828 828 829 829 830 831 832 832 832 832 832 832 832 833 832 833 833 833 833 833 833 834 834 834 834 835 835 836 836 836 836 836 837 836 837 837 837 837 838 838 838 839 839 838 838 838 838 838 838 838 837 837 838 839 839 839 839 840 840
800 801 802 804 805 806 808 808 810 811 812 813 814 815 816 817 818 820 821 822 823 824 825 826 827 827 828 829 829 830 831 831 832 832 832 832 832 832 832 832 833 833 833 833 833 833 832 832 833 833 833 834 834 835 835 835 835 836 836 836 836 836 836 836 837 837 838 838 838 838 838 838 838 838 838 838 837 837 837 838 838 839 839 839 839
799 801 802 804 805 806 808 809 810 811 812 813 814 815 816 817 819 820 821 822 823 824 825 826 827 828 828 829 830 830 831 831 831 831 831 831 832 832 833 833 833 833 833 833 833 833 832 831 832 832 832 833 833 834 834 835 835 835 835 835 835 835 835 836 836 836 836 837 837 838 837 837 837 837 838 838 837 837 837 837 837 838 838 838 839
799 801 802 803 805 806 808 809 810 811 812 813 815 816 817 818 820 821 822 823 824 825 826 826 827 828 829 829 830 830 831 831 830 830 830 830 831 832 833 833 833 833 833 833 833 832 832 831 831 831 832 832 832 833 833 834 834 834 834 834 834 834 834 834 835 835 835 836 836 837 837 837 837 837 837 837 837 837 836 837 837 837 837 837 838
798 800 802 803 805 807 809 810 811 812 813 815 816 816 818 819 820 822 823 824 824 825 826 826 827 828 829 829 830 830 830 831 830 830 830 830 831 831 832 832 832 833 833 833 832 832 832 831 831 831 831 831 832 832 832 832 832 833 833 833 833 833 833 833 833 833 833 834 835 836 836 836 837 837 836 836 837 836 836 836 836 836 837 837 837
798 800 802 804 806 808 810 811 812 813 814 815 816 817 819 820 821 823 824 825 825 826 826 826 827 828 829 829 830 830 830 830 830 830 830 830 830 830 831 831 831 832 832 832 832 832 831 830 831 831 831 830 830 830 831 831 831 832 832 832 832 832 832 832 832 832 832 832 833 834 835 835 836 836 836 836 836 836 836 835 835 836 836 837 837
799 801 803 805 806 808 810 812 813 814 815 816 817 818 819 821 822 823 824 825 825 826 826 826 827 828 829 829 830 830 830 830 830 830 830 830 830 830 830 830 830 830 831 830 830 830 829 828 830 830 830 830 829 829 829 830 830 830 830 830 831 831 830 830 830 830 831 831 831 832 833 834 835 835 836 836 836 836 836 835 834 835 836 836 837
800 802 804 805 807 809 810 812 813 814 815 816 817 818 820 821 823 824 825 825 825 825 826 826 827 828 829 829 829 829 830 830 830 830 830 829 829 829 829 829 829 829 829 829 829 829 828 827 828 829 828 828 828 827 828 828 828 828 828 829 829 829 829 829 829 828 829 829 830 831 832 833 833 834 835 835 835 835 836 835 834 834 834 836 836
800 802 804 806 807 809 810 811 812 813 814 815 817 818 820 822 823 824 825 825 825 825 826 827 827 828 828 829 829 829 830 830 830 830 829 829 829 829 828 828 829 829 829 829 828 828 827 826 827 827 827 826 826 826 827 827 827 827 827 827 827 827 827 827 827 827 827 827 828 829 831 832 832 833 833 833 834 835 835 835 834 833 834 834 835
800 802 804 805 806 808 810 811 812 813 815 816 817 819 820 822 823 824 824 824 825 825 826 827 827 827 828 828 829 829 829 829 829 829 829 828 828 828 828 828 828 828 828 828 827 827 827 826 826 826 826 825 825 825 825 825 825 826 826 826 825 825 826 825 825 826 826 826 826 827 828 830 831 831 832 832 832 833 834 835 834 833 832 833 834
800 802 803 805 806 808 810 811 813 814 815 816 817 819 820 822 823 823 824 824 824 825 826 827 827 827 827 827 828 828 828 828 828 828 828 827 827 827 827 827 827 827 827 827 827 826 826 825 825 825 824 824 823 823 824 824 824 823 823 823 824 824 824 824 823 824 825 825 825 825 825 827 829 830 830 831 831 831 833 834 833 832 831 832 832
799 801 803 804 806 808 810 812 813 815 816 817 818 819 820 821 822 823 824 824 825 826 827 827 827 826 826 826 826 827 827 828 827 827 826 826 826 826 826 826 826 826 826 826 826 825 825 825 824 824 824 823 822 822 822 822 823 821 820 821 821 821 822 822 822 823 823 824 824 824 824 824 826 828 828 829 829 830 831 832 833 832 831 830 831
799 801 803 804 806 808 810 812 813 815 816 817 818 819 820 821 822 823 823 824 825 826 826 826 826 826 825 825 826 826 827 827 827 826 826 825 825 825 825 825 825 825 825 825 825 824 824 824 823 823 822 822 821 820 820 821 821 820 819 819 819 819 819 820 820 820 821 821 822 822 822 823 824 825 826 826 827 828 829 830 832 832 830 829 830
800 801 803 805 806 808 810 812 813 814 816 817 818 819 819 821 822 823 823 823 824 825 825 825 825 825 825 825 825 826 826 827 826 825 825 824 824 824 824 824 824 824 824 824 823 823 823 823 822 821 821 820 820 819 819 819 819 818 818 817 817 817 817 817 817 817 817 818 819 820 820 821 822 823 824 824 825 826 827 828 830 830 830 829 828
800 802 804 805 807 808 810 811 812 814 815 816 817 818 819 820 821 822 822 823 823 824 824 824 824 825 824 824 825 825 826 825 825 824 824 823 823 823 823 823 823 823 822 822 822 822 822 821 821 820 820 819 818 818 818 818 817 816 815 815 815 815 815 815 814 814 814 815 816 818 818 818 819 821 822 822 823 824 825 826 827 828 828 828 827
801 802 804 805 807 808 809 810 811 813 815 816 816 818 818 820 821 821 822 822 823 823 824 824 824 824 824 824 824 825 825 824 824 823 823 822 822 822 822 822 821 821 820 820 820 820 820 820 819 819 818 817 816 816 817 817 816 815 814 813 813 813 813 813 812 812 812 813 814 815 815 816 817 818 820 821 821 822 823 824 825 826 826 826 826
801 802 803 805 807 808 809 810 811 813 814 815 816 817 818 819 820 821 821 822 822 823 823 823 823 823 823 824 824 824 824 824 823 822 822 822 821 821 821 820 820 820 819 818 818 818 817 817 817 817 816 815 814 814 815 815 814 813 813 812 812 811 811 810 810 810 810 811 811 812 812 813 814 815 817 817 818 819 820 822 823 823 824 825 825
801 802 803 805 807 808 809 810 811 813 814 815 816 816 818 818 819 820 820 821 822 823 823 823 823 823 823 823 823 823 823 822 822 822 821 821 821 820 820 820 819 818 818 817 817 816 816 815 815 815 814 813 812 811 812 812 812 812 812 812 811 810 810 808 808 808 808 809 809 809 810 810 811 812 813 814 815 816 818 819 820 821 822 823 823
801 803 804 805 807 808 809 810 811 813 814 814 815 816 818 818 819 820 820 821 822 822 822 822 822 822 822 822 822 822 822 822 821 821 821 820 820 820 819 819 818 818 817 816 815 815 814 814 813 813 812 811 810 809 809 809 809 810 811 810 809 809 808 806 805 804 805 807 806 806 807 807 808 810 810 811 812 814 815 817 818 819 820 821 821
802 803 804 805 807 808 809 811 812 813 814 814 815 816 817 818 819 820 820 821 821 821 821 821 821 821 821 821 821 822 822 821 821 821 820 820 819 819 818 817 817 816 816 815 814 813 813 812 812 811 810 809 808 807 806 806 806 806 807 808 808 808 806 804 804 803 802 803 804 804 804 805 806 807 807 808 810 811 813 814 815 816 817 818 819
803 804 805 806 807 808 809 811 812 813 814 815 816 816 818 819 819 820 821 821 821 821 820 820 819 819 820 820 821 821 821 821 820 820 820 819 818 817 817 816 815 815 814 813 812 812 811 810 809 809 808 807 806 805 804 803 803 802 802 803 804 804 803 803 804 803 801 800 801 802 802 802 803 805 805 806 807 808 810 811 812 814 815 816 817
804 804 805 806 807 808 809 811 812 813 814 815 816 816 817 818 819 820 820 820 820 820 820 819 819 819 819 820 820 820 820 820 819 819 818 817 816 815 815 814 813 813 812 811 810 810 809 807 807 806 805 804 804 802 801 801 800 798 798 798 799 799 800 801 802 802 801 799 799 800 800 801 802 802 803 804 805 806 807 808 809 811 812 813 814
804 805 806 807 808 808 810 811 812 813 815 815 816 816 817 818 819 819 820 819 819 819 819 819 819 819 820 819 819 819 819 818 817 816 816 815 814 813 813 812 811 811 810 809 808 807 806 805 804 803 802 802 801 800 799 798 797 795 794 794 795 795 796 797 798 800 801 799 798 798 798 799 799 800 801 802 802 803 804 805 806 808 809 811 812
805 806 806 807 808 809 811 812 813 814 815 815 815 815 816 817 818 818 818 818 818 818 818 819 819 819 819 819 818 818 817 817 816 816 815 814 814 813 812 811 810 809 808 807 806 805 804 803 802 801 799 798 798 797 796 795 794 793 791 790 790 791 792 793 795 797 798 798 797 796 795 796 797 797 797 798 799 800 801 802 803 805 807 808 809
806 807 807 808 809 810 811 812 813 814 814 815 814 814 816 816 817 817 817 817 817 818 818 819 819 819 819 818 818 817 817 817 816 816 815 814 813 812 811 809 808 808 807 806 805 804 802 801 799 798 797 796 795 794 793 793 792 791 789 789 788 787 789 790 791 793 794 795 794 792 792 794 794 793 793 794 795 796 797 799 800 802 804 806 807
807 808 809 809 809 810 811 812 813 814 814 814 814 814 816 816 817 817 817 817 817 818 818 819 819 819 818 818 818 818 817 817 816 815 815 814 813 811 810 809 808 807 807 805 804 802 800 798 797 796 795 793 792 791 791 790 789 788 787 787 787 785 785 785 786 788 789 789 790 789 789 790 791 790 790 790 792 793 794 795 797 798 800 802 804